| time (UTC) | temp F | wind direction | speed MPH | gust MPH | rain 1hr in | rain 24hr in | rain mn in | humidity % | barometer mb |
| 20260505195804 | 64 | 260 | 16.0 | 31.0 | 0.00 | 0.01 | 0.01 | 53 | 1012.5 |
| 20260505194304 | 64 | 268 | 14.0 | 26.0 | 0.00 | 0.01 | 0.01 | 53 | 1012.6 |
| 20260505193804 | 63 | 292 | 12.0 | 35.0 | 0.00 | 0.01 | 0.01 | 53 | 1012.6 |
| 20260505193304 | 63 | 269 | 13.0 | 30.0 | 0.00 | 0.01 | 0.01 | 54 | 1012.8 |
| 20260505192803 | 63 | 285 | 14.0 | 35.0 | 0.00 | 0.01 | 0.01 | 54 | 1012.9 |
| 20260505192305 | 63 | 275 | 16.0 | 26.0 | 0.00 | 0.01 | 0.01 | 54 | 1012.8 |
| 20260505191804 | 63 | 277 | 13.0 | 28.0 | 0.00 | 0.01 | 0.01 | 54 | 1012.7 |
| 20260505190804 | 62 | 286 | 15.0 | 26.0 | 0.00 | 0.01 | 0.01 | 54 | 1012.7 |
| 20260505185804 | 62 | 271 | 14.0 | 25.0 | 0.00 | 0.01 | 0.01 | 54 | 1012.8 |
| 20260505185305 | 62 | 278 | 14.0 | 29.0 | 0.00 | 0.01 | 0.01 | 56 | 1012.9 |
| 20260505184804 | 62 | 280 | 17.0 | 31.0 | 0.00 | 0.01 | 0.01 | 55 | 1012.9 |
| 20260505184304 | 62 | 283 | 15.0 | 30.0 | 0.00 | 0.01 | 0.01 | 55 | 1012.8 |
| 20260505183803 | 61 | 280 | 13.0 | 33.0 | 0.00 | 0.01 | 0.01 | 55 | 1013.0 |
| 20260505182306 | 61 | 267 | 14.0 | 29.0 | 0.00 | 0.01 | 0.01 | 56 | 1013.0 |
| 20260505181304 | 60 | 289 | 18.0 | 31.0 | 0.00 | 0.01 | 0.01 | 57 | 1012.9 |
| 20260505180804 | 60 | 264 | 16.0 | 29.0 | 0.00 | 0.01 | 0.01 | 58 | 1013.1 |
| 20260505180304 | 60 | 267 | 15.0 | 38.0 | 0.00 | 0.01 | 0.01 | 58 | 1013.1 |
| 20260505175305 | 60 | 290 | 17.0 | 28.0 | 0.00 | 0.01 | 0.01 | 58 | 1013.1 |
| 20260505174804 | 60 | 273 | 17.0 | 28.0 | 0.00 | 0.01 | 0.01 | 58 | 1013.2 |
| 20260505174303 | 60 | 271 | 16.0 | 29.0 | 0.00 | 0.01 | 0.01 | 59 | 1013.1 |
| 20260505173804 | 60 | 266 | 18.0 | 33.0 | 0.00 | 0.01 | 0.01 | 59 | 1013.0 |
| 20260505173304 | 60 | 279 | 15.0 | 30.0 | 0.00 | 0.01 | 0.01 | 59 | 1013.1 |
| 20260505172804 | 59 | 274 | 15.0 | 31.0 | 0.00 | 0.01 | 0.01 | 60 | 1013.1 |
| 20260505172306 | 59 | 281 | 17.0 | 31.0 | 0.00 | 0.01 | 0.01 | 60 | 1013.1 |
| 20260505171804 | 59 | 267 | 17.0 | 32.0 | 0.00 | 0.01 | 0.01 | 60 | 1013.1 |
| 20260505171304 | 59 | 266 | 14.0 | 29.0 | 0.00 | 0.01 | 0.01 | 60 | 1013.2 |
| 20260505170804 | 59 | 281 | 16.0 | 33.0 | 0.00 | 0.01 | 0.01 | 61 | 1013.0 |
| 20260505170304 | 59 | 274 | 15.0 | 25.0 | 0.00 | 0.01 | 0.01 | 61 | 1013.1 |
| 20260505165804 | 59 | 276 | 12.0 | 30.0 | 0.00 | 0.01 | 0.01 | 61 | 1013.0 |
| 20260505165306 | 58 | 273 | 17.0 | 29.0 | 0.00 | 0.01 | 0.01 | 61 | 1013.0 |
| 20260505164804 | 58 | 280 | 12.0 | 30.0 | 0.00 | 0.01 | 0.01 | 62 | 1013.0 |
| 20260505164304 | 58 | 268 | 14.0 | 32.0 | 0.00 | 0.01 | 0.01 | 62 | 1013.0 |
| 20260505163804 | 58 | 282 | 15.0 | 26.0 | 0.00 | 0.01 | 0.01 | 62 | 1013.0 |
| 20260505163304 | 58 | 264 | 16.0 | 31.0 | 0.00 | 0.01 | 0.01 | 62 | 1013.0 |
| 20260505162803 | 58 | 239 | 17.0 | 30.0 | 0.00 | 0.01 | 0.01 | 62 | 1012.8 |
| 20260505161804 | 58 | 272 | 12.0 | 23.0 | 0.00 | 0.01 | 0.01 | 62 | 1012.9 |
| 20260505161304 | 58 | 255 | 17.0 | 29.0 | 0.00 | 0.01 | 0.01 | 62 | 1012.9 |
| 20260505160805 | 58 | 246 | 18.0 | 31.0 | 0.00 | 0.01 | 0.01 | 62 | 1012.8 |
| 20260505160304 | 58 | 275 | 12.0 | 29.0 | 0.00 | 0.01 | 0.01 | 63 | 1012.9 |
| 20260505153304 | 57 | 271 | 16.0 | 31.0 | 0.00 | 0.01 | 0.01 | 63 | 1012.7 |
| 20260505152804 | 57 | 264 | 18.0 | 26.0 | 0.00 | 0.01 | 0.01 | 63 | 1012.6 |
| 20260505151804 | 57 | 277 | 15.0 | 31.0 | 0.00 | 0.01 | 0.01 | 63 | 1012.6 |
| 20260505151305 | 57 | 276 | 14.0 | 28.0 | 0.00 | 0.01 | 0.01 | 64 | 1012.5 |
| 20260505150805 | 57 | 279 | 14.0 | 32.0 | 0.00 | 0.01 | 0.01 | 64 | 1012.5 |
| 20260505150304 | 57 | 281 | 16.0 | 30.0 | 0.00 | 0.01 | 0.01 | 64 | 1012.5 |
| 20260505140304 | 56 | 270 | 14.0 | 26.0 | 0.00 | 0.01 | 0.01 | 65 | 1012.0 |
| 20260505130304 | 56 | 267 | 19.0 | 28.0 | 0.00 | 0.01 | 0.01 | 64 | 1011.5 |
| 20260505124304 | 56 | 276 | 15.0 | 28.0 | 0.00 | 0.01 | 0.01 | 65 | 1011.3 |
| 20260505123804 | 57 | 271 | 17.0 | 28.0 | 0.00 | 0.01 | 0.01 | 63 | 1011.3 |
| 20260505123304 | 57 | 268 | 18.0 | 36.0 | 0.00 | 0.01 | 0.01 | 64 | 1011.2 |
| 20260505122804 | 57 | 270 | 18.0 | 31.0 | 0.00 | 0.01 | 0.01 | 62 | 1011.1 |
| 20260505122305 | 57 | 279 | 14.0 | 31.0 | 0.00 | 0.01 | 0.01 | 63 | 1011.2 |
| 20260505121804 | 57 | 262 | 14.0 | 25.0 | 0.00 | 0.01 | 0.01 | 64 | 1011.3 |
| 20260505121303 | 57 | 266 | 15.0 | 26.0 | 0.00 | 0.01 | 0.01 | 63 | 1011.0 |
| 20260505120804 | 57 | 279 | 16.0 | 32.0 | 0.00 | 0.01 | 0.01 | 63 | 1011.1 |
| 20260505120305 | 57 | 267 | 16.0 | 32.0 | 0.00 | 0.01 | 0.01 | 63 | 1011.0 |
| 20260505115305 | 57 | 257 | 16.0 | 32.0 | 0.00 | 0.01 | 0.01 | 63 | 1011.0 |
| 20260505114804 | 57 | 268 | 14.0 | 28.0 | 0.00 | 0.01 | 0.01 | 63 | 1010.9 |
| 20260505114304 | 58 | 261 | 16.0 | 29.0 | 0.00 | 0.01 | 0.01 | 62 | 1010.9 |
| 20260505113802 | 58 | 274 | 15.0 | 30.0 | 0.00 | 0.01 | 0.01 | 62 | 1010.9 |
| 20260505113303 | 58 | 278 | 14.0 | 28.0 | 0.00 | 0.01 | 0.01 | 62 | 1010.8 |
| 20260505112803 | 58 | 287 | 18.0 | 33.0 | 0.00 | 0.00 | 0.00 | 60 | 1010.9 |
| 20260505112305 | 58 | 282 | 18.0 | 36.0 | 0.00 | 0.00 | 0.00 | 61 | 1010.8 |
| 20260505111803 | 58 | 270 | 14.0 | 31.0 | 0.00 | 0.00 | 0.00 | 61 | 1010.8 |
| 20260505111303 | 58 | 270 | 15.0 | 30.0 | 0.00 | 0.00 | 0.00 | 61 | 1010.8 |
| 20260505110803 | 58 | 280 | 14.0 | 28.0 | 0.00 | 0.00 | 0.00 | 61 | 1010.7 |
| 20260505110303 | 58 | 258 | 14.0 | 29.0 | 0.00 | 0.00 | 0.00 | 61 | 1010.7 |
| 20260505101803 | 59 | 275 | 18.0 | 31.0 | 0.00 | 0.00 | 0.00 | 59 | 1010.4 |
| 20260505101303 | 59 | 251 | 13.0 | 29.0 | 0.00 | 0.00 | 0.00 | 61 | 1010.5 |
| 20260505100803 | 59 | 276 | 17.0 | 31.0 | 0.00 | 0.00 | 0.00 | 59 | 1010.3 |
| 20260505100303 | 59 | 278 | 17.0 | 31.0 | 0.00 | 0.00 | 0.00 | 58 | 1010.4 |
| 20260505095304 | 60 | 281 | 15.0 | 29.0 | 0.00 | 0.00 | 0.00 | 59 | 1010.2 |
| 20260505094803 | 60 | 267 | 15.0 | 33.0 | 0.00 | 0.00 | 0.00 | 58 | 1010.3 |
| 20260505094302 | 60 | 267 | 15.0 | 29.0 | 0.00 | 0.00 | 0.00 | 58 | 1010.1 |
| 20260505093803 | 60 | 283 | 14.0 | 26.0 | 0.00 | 0.00 | 0.00 | 59 | 1010.2 |
| 20260505093303 | 60 | 291 | 17.0 | 31.0 | 0.00 | 0.00 | 0.00 | 57 | 1009.9 |
| 20260505092305 | 60 | 274 | 14.0 | 32.0 | 0.00 | 0.00 | 0.00 | 59 | 1010.0 |
| 20260505091802 | 60 | 272 | 14.0 | 25.0 | 0.00 | 0.00 | 0.00 | 59 | 1010.1 |
| 20260505091303 | 61 | 276 | 16.0 | 30.0 | 0.00 | 0.00 | 0.00 | 57 | 1010.0 |
| 20260505090802 | 61 | 263 | 13.0 | 25.0 | 0.00 | 0.00 | 0.00 | 59 | 1009.9 |
| 20260505090303 | 61 | 287 | 16.0 | 30.0 | 0.00 | 0.00 | 0.00 | 58 | 1010.0 |
| 20260505085802 | 61 | 280 | 15.0 | 30.0 | 0.00 | 0.00 | 0.00 | 58 | 1009.8 |
| 20260505084802 | 62 | 286 | 13.0 | 24.0 | 0.00 | 0.00 | 0.00 | 58 | 1009.7 |
| 20260505084303 | 62 | 268 | 14.0 | 26.0 | 0.00 | 0.00 | 0.00 | 58 | 1009.6 |
| 20260505083303 | 62 | 269 | 11.0 | 28.0 | 0.00 | 0.00 | 0.00 | 57 | 1009.7 |
| 20260505082803 | 63 | 266 | 10.0 | 23.0 | 0.00 | 0.00 | 0.00 | 57 | 1009.7 |
| 20260505082304 | 63 | 276 | 14.0 | 23.0 | 0.00 | 0.00 | 0.00 | 56 | 1009.7 |
| 20260505081803 | 63 | 256 | 11.0 | 21.0 | 0.00 | 0.00 | 0.00 | 56 | 1009.7 |
| 20260505081303 | 63 | 253 | 12.0 | 23.0 | 0.00 | 0.00 | 0.00 | 57 | 1009.6 |
| 20260505080802 | 63 | 255 | 9.0 | 20.0 | 0.00 | 0.00 | 0.00 | 56 | 1009.5 |
| 20260505080303 | 64 | 280 | 11.0 | 22.0 | 0.00 | 0.00 | 0.00 | 56 | 1009.5 |
| 20260505075803 | 64 | 280 | 10.0 | 21.0 | 0.00 | 0.00 | 0.00 | 56 | 1009.5 |
| 20260505075304 | 64 | 274 | 9.0 | 24.0 | 0.00 | 0.00 | 0.00 | 57 | 1009.3 |
| 20260505074303 | 64 | 263 | 10.0 | 17.0 | 0.00 | 0.00 | 0.00 | 57 | 1009.3 |
| 20260505073803 | 64 | 271 | 9.0 | 25.0 | 0.00 | 0.00 | 0.00 | 58 | 1009.3 |
| 20260505073303 | 64 | 270 | 11.0 | 24.0 | 0.00 | 0.00 | 0.00 | 58 | 1009.3 |
| 20260505072803 | 65 | 236 | 9.0 | 20.0 | 0.00 | 0.00 | 0.00 | 58 | 1009.2 |
| 20260505072305 | 65 | 278 | 11.0 | 21.0 | 0.00 | 0.00 | 0.00 | 57 | 1009.1 |
| 20260505071303 | 65 | 272 | 10.0 | 23.0 | 0.00 | 0.00 | 0.00 | 57 | 1009.1 |
| 20260505070802 | 65 | 292 | 10.0 | 21.0 | 0.00 | 0.00 | 0.00 | 57 | 1009.0 |
| 20260505070303 | 65 | 280 | 9.0 | 17.0 | 0.00 | 0.00 | 0.00 | 57 | 1009.0 |
| 20260505065803 | 65 | 265 | 10.0 | 18.0 | 0.00 | 0.00 | 0.00 | 58 | 1009.0 |
| 20260505065304 | 65 | 273 | 12.0 | 22.0 | 0.00 | 0.00 | 0.00 | 56 | 1008.9 |
| 20260505064804 | 65 | 274 | 6.0 | 17.0 | 0.00 | 0.00 | 0.00 | 58 | 1009.0 |
| 20260505064302 | 65 | 264 | 10.0 | 24.0 | 0.00 | 0.00 | 0.00 | 57 | 1008.9 |
| 20260505063302 | 66 | 279 | 12.0 | 22.0 | 0.00 | 0.00 | 0.00 | 57 | 1008.8 |
| 20260505062803 | 66 | 265 | 9.0 | 24.0 | 0.00 | 0.00 | 0.00 | 58 | 1008.8 |
| 20260505062304 | 66 | 276 | 9.0 | 23.0 | 0.00 | 0.00 | 0.00 | 57 | 1008.8 |
| 20260505061803 | 66 | 275 | 11.0 | 21.0 | 0.00 | 0.00 | 0.00 | 56 | 1008.7 |
| 20260505061303 | 66 | 272 | 11.0 | 20.0 | 0.00 | 0.00 | 0.00 | 57 | 1008.6 |
| 20260505060303 | 66 | 261 | 14.0 | 26.0 | 0.00 | 0.00 | 0.00 | 56 | 1008.6 |
| 20260505055803 | 66 | 272 | 10.0 | 25.0 | 0.00 | 0.00 | 0.00 | 56 | 1008.7 |
| 20260505055304 | 67 | 268 | 11.0 | 23.0 | 0.00 | 0.00 | 0.00 | 55 | 1008.7 |
| 20260505053803 | 67 | 275 | 9.0 | 20.0 | 0.00 | 0.00 | 0.00 | 55 | 1008.6 |
| 20260505053303 | 67 | 274 | 10.0 | 21.0 | 0.00 | 0.00 | 0.00 | 55 | 1008.5 |
| 20260505052304 | 67 | 274 | 10.0 | 20.0 | 0.00 | 0.00 | 0.00 | 55 | 1008.5 |
| 20260505051303 | 67 | 275 | 11.0 | 21.0 | 0.00 | 0.00 | 0.00 | 55 | 1008.5 |
| 20260505050802 | 67 | 271 | 12.0 | 25.0 | 0.00 | 0.00 | 0.00 | 54 | 1008.4 |
| 20260505050302 | 67 | 298 | 8.0 | 20.0 | 0.00 | 0.00 | 0.00 | 55 | 1008.4 |
| 20260505041302 | 68 | 265 | 9.0 | 18.0 | 0.00 | 0.00 | 0.00 | 52 | 1007.8 |
| 20260505040803 | 68 | 264 | 10.0 | 20.0 | 0.00 | 0.00 | 0.00 | 51 | 1007.7 |
| 20260505040303 | 68 | 267 | 12.0 | 22.0 | 0.00 | 0.00 | 0.00 | 51 | 1007.6 |
| 20260505035802 | 68 | 262 | 9.0 | 20.0 | 0.00 | 0.00 | 0.00 | 50 | 1007.6 |
| 20260505035304 | 68 | 254 | 12.0 | 20.0 | 0.00 | 0.00 | 0.00 | 50 | 1007.6 |
| 20260505034803 | 68 | 264 | 7.0 | 20.0 | 0.00 | 0.00 | 0.00 | 50 | 1007.5 |
| 20260505034303 | 68 | 282 | 10.0 | 24.0 | 0.00 | 0.00 | 0.00 | 49 | 1007.4 |
| 20260505033802 | 69 | 265 | 10.0 | 21.0 | 0.00 | 0.00 | 0.00 | 49 | 1007.4 |
| 20260505033303 | 69 | 295 | 12.0 | 25.0 | 0.00 | 0.00 | 0.00 | 49 | 1007.3 |
| 20260505032802 | 69 | 264 | 9.0 | 20.0 | 0.00 | 0.00 | 0.00 | 48 | 1007.1 |
| 20260505032304 | 69 | 281 | 9.0 | 22.0 | 0.00 | 0.00 | 0.00 | 48 | 1007.1 |
| 20260505031802 | 69 | 247 | 7.0 | 18.0 | 0.00 | 0.00 | 0.00 | 48 | 1007.0 |
| 20260505031303 | 69 | 306 | 6.0 | 14.0 | 0.00 | 0.00 | 0.00 | 48 | 1007.0 |
| 20260505030803 | 69 | 268 | 12.0 | 23.0 | 0.00 | 0.00 | 0.00 | 47 | 1006.8 |
| 20260505025803 | 69 | 309 | 8.0 | 20.0 | 0.00 | 0.00 | 0.00 | 47 | 1006.6 |
| 20260505025304 | 69 | 311 | 7.0 | 23.0 | 0.00 | 0.00 | 0.00 | 47 | 1006.6 |
| 20260505024803 | 70 | 283 | 9.0 | 24.0 | 0.00 | 0.00 | 0.00 | 47 | 1006.5 |
| 20260505023804 | 70 | 308 | 8.0 | 24.0 | 0.00 | 0.00 | 0.00 | 46 | 1006.4 |
| 20260505022304 | 71 | 305 | 9.0 | 18.0 | 0.00 | 0.00 | 0.00 | 45 | 1006.3 |
| 20260505020303 | 71 | 304 | 7.0 | 16.0 | 0.00 | 0.00 | 0.00 | 45 | 1006.4 |
| 20260505015803 | 71 | 299 | 9.0 | 20.0 | 0.00 | 0.00 | 0.00 | 44 | 1006.4 |
| 20260505015304 | 72 | 280 | 7.0 | 20.0 | 0.00 | 0.00 | 0.00 | 44 | 1006.5 |
| 20260505014802 | 72 | 280 | 7.0 | 18.0 | 0.00 | 0.00 | 0.00 | 44 | 1006.4 |
| 20260505014303 | 72 | 279 | 9.0 | 22.0 | 0.00 | 0.00 | 0.00 | 44 | 1006.3 |
| 20260505012803 | 72 | 272 | 9.0 | 23.0 | 0.00 | 0.00 | 0.00 | 44 | 1006.4 |
| 20260505012304 | 72 | 265 | 8.0 | 18.0 | 0.00 | 0.00 | 0.00 | 43 | 1006.3 |
| 20260505011803 | 72 | 286 | 14.0 | 24.0 | 0.00 | 0.00 | 0.00 | 43 | 1006.4 |
| 20260505011303 | 72 | 282 | 12.0 | 25.0 | 0.00 | 0.00 | 0.00 | 43 | 1006.5 |
| 20260505010803 | 72 | 307 | 9.0 | 21.0 | 0.00 | 0.00 | 0.00 | 43 | 1006.3 |
| 20260505005803 | 72 | 293 | 7.0 | 23.0 | 0.00 | 0.00 | 0.00 | 44 | 1006.5 |
| 20260505005303 | 72 | 267 | 14.0 | 26.0 | 0.00 | 0.00 | 0.00 | 43 | 1006.4 |
| 20260505004803 | 72 | 267 | 13.0 | 24.0 | 0.00 | 0.00 | 0.00 | 43 | 1006.6 |
| 20260505004303 | 73 | 299 | 13.0 | 22.0 | 0.00 | 0.00 | 0.00 | 43 | 1006.6 |
| 20260505003803 | 73 | 278 | 12.0 | 23.0 | 0.00 | 0.00 | 0.00 | 43 | 1006.5 |
| 20260505002803 | 73 | 281 | 12.0 | 23.0 | 0.00 | 0.00 | 0.00 | 42 | 1006.6 |
| 20260505002304 | 73 | 288 | 13.0 | 29.0 | 0.00 | 0.00 | 0.00 | 42 | 1006.6 |
| 20260505001802 | 73 | 299 | 12.0 | 23.0 | 0.00 | 0.00 | 0.00 | 42 | 1006.4 |
| 20260505001304 | 73 | 290 | 13.0 | 29.0 | 0.00 | 0.00 | 0.00 | 42 | 1006.5 |
| 20260505000803 | 73 | 287 | 11.0 | 25.0 | 0.00 | 0.00 | 0.00 | 41 | 1006.5 |
| 20260505000302 | 73 | 272 | 17.0 | 25.0 | 0.00 | 0.00 | 0.00 | 41 | 1006.5 |
| 20260504235803 | 74 | 267 | 12.0 | 23.0 | 0.00 | 0.00 | 0.00 | 40 | 1006.5 |
| 20260504235304 | 74 | 267 | 11.0 | 20.0 | 0.00 | 0.00 | 0.00 | 40 | 1006.6 |
| 20260504234803 | 74 | 258 | 11.0 | 24.0 | 0.00 | 0.00 | 0.00 | 40 | 1006.6 |
| 20260504234303 | 74 | 251 | 9.0 | 20.0 | 0.00 | 0.00 | 0.00 | 39 | 1006.7 |
| 20260504233802 | 74 | 290 | 10.0 | 23.0 | 0.00 | 0.00 | 0.00 | 40 | 1006.5 |
| 20260504233304 | 74 | 269 | 12.0 | 24.0 | 0.00 | 0.00 | 0.00 | 41 | 1006.5 |
| 20260504232802 | 74 | 278 | 12.0 | 25.0 | 0.00 | 0.00 | 0.00 | 40 | 1006.5 |
| 20260504231802 | 74 | 262 | 13.0 | 25.0 | 0.00 | 0.00 | 0.00 | 40 | 1006.5 |
| 20260504231303 | 74 | 267 | 12.0 | 24.0 | 0.00 | 0.00 | 0.00 | 40 | 1006.5 |
| 20260504230803 | 74 | 289 | 14.0 | 29.0 | 0.00 | 0.00 | 0.00 | 41 | 1006.6 |
| 20260504225803 | 73 | 266 | 10.0 | 28.0 | 0.00 | 0.00 | 0.00 | 40 | 1006.7 |
| 20260504225304 | 73 | 284 | 15.0 | 26.0 | 0.00 | 0.00 | 0.00 | 40 | 1006.6 |
| 20260504224803 | 73 | 280 | 13.0 | 35.0 | 0.00 | 0.00 | 0.00 | 40 | 1006.9 |
| 20260504223803 | 73 | 269 | 16.0 | 24.0 | 0.00 | 0.00 | 0.00 | 41 | 1006.8 |
| 20260504223303 | 73 | 276 | 14.0 | 23.0 | 0.00 | 0.00 | 0.00 | 41 | 1007.0 |
| 20260504222803 | 73 | 270 | 12.0 | 21.0 | 0.00 | 0.00 | 0.00 | 41 | 1007.2 |
| 20260504222304 | 73 | 273 | 14.0 | 28.0 | 0.00 | 0.00 | 0.00 | 41 | 1007.1 |
| 20260504221303 | 73 | 263 | 11.0 | 23.0 | 0.00 | 0.00 | 0.00 | 41 | 1007.2 |
| 20260504220803 | 73 | 286 | 9.0 | 23.0 | 0.00 | 0.00 | 0.00 | 41 | 1007.3 |
| 20260504220303 | 73 | 288 | 12.0 | 26.0 | 0.00 | 0.00 | 0.00 | 42 | 1007.2 |
| 20260504215803 | 72 | 305 | 7.0 | 26.0 | 0.00 | 0.00 | 0.00 | 42 | 1007.3 |
| 20260504215304 | 72 | 259 | 12.0 | 21.0 | 0.00 | 0.00 | 0.00 | 42 | 1007.4 |
| 20260504214303 | 72 | 285 | 13.0 | 22.0 | 0.00 | 0.00 | 0.00 | 42 | 1007.4 |
| 20260504213303 | 72 | 296 | 7.0 | 15.0 | 0.00 | 0.00 | 0.00 | 42 | 1007.6 |
| 20260504212803 | 71 | 243 | 12.0 | 23.0 | 0.00 | 0.00 | 0.00 | 43 | 1007.7 |
| 20260504212304 | 71 | 272 | 12.0 | 28.0 | 0.00 | 0.00 | 0.00 | 43 | 1007.8 |
| 20260504211802 | 71 | 262 | 12.0 | 23.0 | 0.00 | 0.00 | 0.00 | 43 | 1007.9 |
| 20260504211303 | 71 | 276 | 12.0 | 29.0 | 0.00 | 0.00 | 0.00 | 43 | 1007.8 |
| 20260504210803 | 71 | 268 | 13.0 | 24.0 | 0.00 | 0.00 | 0.00 | 43 | 1008.0 |
| 20260504210303 | 70 | 259 | 13.0 | 28.0 | 0.00 | 0.00 | 0.00 | 44 | 1007.9 |
| 20260504205803 | 70 | 273 | 16.0 | 26.0 | 0.00 | 0.00 | 0.00 | 44 | 1007.8 |
| 20260504205304 | 70 | 285 | 17.0 | 25.0 | 0.00 | 0.00 | 0.00 | 43 | 1008.0 |
| 20260504204803 | 70 | 285 | 14.0 | 28.0 | 0.00 | 0.00 | 0.00 | 44 | 1008.0 |
| 20260504204303 | 70 | 275 | 11.0 | 31.0 | 0.00 | 0.00 | 0.00 | 44 | 1008.1 |
| 20260504203804 | 69 | 293 | 13.0 | 30.0 | 0.00 | 0.00 | 0.00 | 44 | 1008.2 |
| 20260504203304 | 69 | 275 | 15.0 | 32.0 | 0.00 | 0.00 | 0.00 | 44 | 1008.1 |
| 20260504202803 | 69 | 293 | 14.0 | 31.0 | 0.00 | 0.00 | 0.00 | 45 | 1008.1 |
| 20260504201803 | 69 | 281 | 13.0 | 31.0 | 0.00 | 0.00 | 0.00 | 44 | 1008.2 |
| 20260504201303 | 69 | 250 | 15.0 | 29.0 | 0.00 | 0.00 | 0.00 | 45 | 1008.3 |
| 20260504200804 | 69 | 271 | 17.0 | 31.0 | 0.00 | 0.00 | 0.00 | 45 | 1008.3 |
| 20260504200303 | 69 | 258 | 14.0 | 26.0 | 0.00 | 0.00 | 0.00 | 44 | 1008.3 |